Time,TemperatureF,DewpointF,PressureIn,WindDirection,WindDirectionDegrees,WindSpeedMPH,WindSpeedGustMPH,Humidity,HourlyPrecipIn,Conditions,Clouds,dailyrainin,SoftwareType,DateUTC
2013-02-12 00:04:00,36.5,21.5,29.53,North,-999,0.0,0.0,54,0.00,,,0.00,LWC V1.12 B30,2013-02-12 07:04:00,
2013-02-12 00:09:00,36.4,21.8,29.53,North,-999,0.0,0.0,55,0.00,,,0.00,LWC V1.12 B30,2013-02-12 07:09:00,
2013-02-12 00:14:00,36.3,21.7,29.53,North,-999,0.0,0.0,55,0.00,,,0.00,LWC V1.12 B30,2013-02-12 07:14:00,
2013-02-12 00:19:00,36.3,22.1,29.53,North,-999,0.0,0.0,56,0.00,,,0.00,LWC V1.12 B30,2013-02-12 07:19:00,
2013-02-12 00:24:00,36.2,22.0,29.53,North,-999,0.0,0.0,56,0.00,,,0.00,LWC V1.12 B30,2013-02-12 07:24:00,
2013-02-12 00:29:00,36.3,22.1,29.53,North,-999,0.0,0.0,56,0.00,,,0.00,LWC V1.12 B30,2013-02-12 07:29:00,
2013-02-12 00:34:00,36.3,22.1,29.53,North,-999,0.0,0.0,56,0.00,,,0.00,LWC V1.12 B30,2013-02-12 07:34:00,
2013-02-12 00:39:00,36.3,22.1,29.53,North,-999,0.0,0.0,56,0.00,,,0.00,LWC V1.12 B30,2013-02-12 07:39:00,
2013-02-12 00:44:00,36.3,22.1,29.53,North,-999,0.0,0.0,56,0.00,,,0.00,LWC V1.12 B30,2013-02-12 07:44:00,
2013-02-12 00:49:00,36.4,22.2,29.53,North,-999,0.0,0.0,56,0.00,,,0.00,LWC V1.12 B30,2013-02-12 07:49:00,
2013-02-12 00:54:00,36.3,22.5,29.53,North,-999,0.0,0.0,57,0.00,,,0.00,LWC V1.12 B30,2013-02-12 07:54:00,
2013-02-12 00:59:00,36.3,22.5,29.53,North,-999,0.0,0.0,57,0.00,,,0.00,LWC V1.12 B30,2013-02-12 07:59:00,
2013-02-12 01:04:00,36.4,22.6,29.53,North,-999,0.0,0.0,57,0.00,,,0.00,LWC V1.12 B30,2013-02-12 08:04:00,
2013-02-12 01:09:00,36.3,22.5,29.53,North,-999,0.0,0.0,57,0.00,,,0.00,LWC V1.12 B30,2013-02-12 08:09:00,
2013-02-12 01:14:00,36.4,22.2,29.53,North,-999,0.0,0.0,56,0.00,,,0.00,LWC V1.12 B30,2013-02-12 08:14:00,
2013-02-12 01:19:00,36.4,22.6,29.53,North,-999,0.0,0.0,57,0.00,,,0.00,LWC V1.12 B30,2013-02-12 08:19:00,
2013-02-12 01:24:00,36.5,22.7,29.53,North,-999,0.0,0.0,57,0.00,,,0.00,LWC V1.12 B30,2013-02-12 08:24:00,
2013-02-12 01:29:00,36.5,22.7,29.53,North,-999,0.0,0.0,57,0.00,,,0.00,LWC V1.12 B30,2013-02-12 08:29:00,
2013-02-12 01:34:00,36.5,22.7,29.53,North,-999,0.0,0.0,57,0.00,,,0.00,LWC V1.12 B30,2013-02-12 08:34:00,
2013-02-12 01:39:00,36.5,22.3,29.53,North,-999,0.0,0.0,56,0.00,,,0.00,LWC V1.12 B30,2013-02-12 08:39:00,
2013-02-12 01:44:00,36.3,21.7,29.53,North,-999,0.0,0.0,55,0.00,,,0.00,LWC V1.12 B30,2013-02-12 08:44:00,
2013-02-12 01:49:00,36.2,21.6,29.53,North,-999,0.0,0.0,55,0.00,,,0.00,LWC V1.12 B30,2013-02-12 08:49:00,
2013-02-12 01:54:00,36.2,21.2,29.53,North,-999,0.0,0.0,54,0.00,,,0.00,LWC V1.12 B30,2013-02-12 08:54:00,
2013-02-12 01:59:00,36.2,21.2,29.53,North,-999,0.0,0.0,54,0.00,,,0.00,LWC V1.12 B30,2013-02-12 08:59:00,
2013-02-12 02:04:00,36.2,20.7,29.53,North,-999,0.0,0.0,53,0.00,,,0.00,LWC V1.12 B30,2013-02-12 09:04:00,
2013-02-12 02:09:00,36.1,20.6,29.53,North,-999,0.0,0.0,53,0.00,,,0.00,LWC V1.12 B30,2013-02-12 09:09:00,
2013-02-12 02:14:00,36.1,20.2,29.53,North,-999,0.0,0.0,52,0.00,,,0.00,LWC V1.12 B30,2013-02-12 09:14:00,
2013-02-12 02:19:00,36.1,19.7,29.53,North,-999,0.0,0.0,51,0.00,,,0.00,LWC V1.12 B30,2013-02-12 09:19:00,
2013-02-12 02:24:00,36.0,19.2,29.53,North,-999,0.0,0.0,50,0.00,,,0.00,LWC V1.12 B30,2013-02-12 09:24:00,
2013-02-12 02:29:00,36.0,18.7,29.53,North,-999,0.0,0.0,49,0.00,,,0.00,LWC V1.12 B30,2013-02-12 09:29:00,
2013-02-12 02:34:00,35.9,18.1,29.53,North,-999,0.0,0.0,48,0.00,,,0.00,LWC V1.12 B30,2013-02-12 09:34:00,
2013-02-12 02:39:00,35.8,17.6,29.53,North,-999,0.0,0.0,47,0.00,,,0.00,LWC V1.12 B30,2013-02-12 09:39:00,
2013-02-12 02:44:00,35.7,17.5,29.53,North,-999,0.0,0.0,47,0.00,,,0.00,LWC V1.12 B30,2013-02-12 09:44:00,
2013-02-12 02:49:00,35.8,17.1,29.53,North,-999,0.0,0.0,46,0.00,,,0.00,LWC V1.12 B30,2013-02-12 09:49:00,
2013-02-12 02:54:00,35.8,16.6,29.53,North,-999,0.0,0.0,45,0.00,,,0.00,LWC V1.12 B30,2013-02-12 09:54:00,
2013-02-12 02:59:00,35.7,16.5,29.53,North,-999,0.0,0.0,45,0.00,,,0.00,LWC V1.12 B30,2013-02-12 09:59:00,
2013-02-12 03:04:00,35.6,16.4,29.53,North,-999,0.0,0.0,45,0.00,,,0.00,LWC V1.12 B30,2013-02-12 10:04:00,
2013-02-12 03:09:00,35.5,15.8,29.53,North,-999,0.0,0.0,44,0.00,,,0.00,LWC V1.12 B30,2013-02-12 10:09:00,
2013-02-12 03:14:00,35.3,15.6,29.53,North,-999,0.0,0.0,44,0.00,,,0.00,LWC V1.12 B30,2013-02-12 10:14:00,
2013-02-12 03:19:00,35.2,16.0,29.53,North,-999,0.0,0.0,45,0.00,,,0.00,LWC V1.12 B30,2013-02-12 10:19:00,
2013-02-12 03:24:00,35.0,15.8,29.53,North,-999,0.0,0.0,45,0.00,,,0.00,LWC V1.12 B30,2013-02-12 10:24:00,
2013-02-12 03:29:00,34.8,15.6,29.53,North,-999,0.0,0.0,45,0.00,,,0.00,LWC V1.12 B30,2013-02-12 10:29:00,
2013-02-12 03:34:00,34.7,15.6,29.53,North,-999,0.0,0.0,45,0.00,,,0.00,LWC V1.12 B30,2013-02-12 10:34:00,
2013-02-12 03:39:00,34.6,16.0,29.53,North,-999,0.0,0.0,46,0.00,,,0.00,LWC V1.12 B30,2013-02-12 10:39:00,
2013-02-12 03:45:00,34.4,15.8,29.53,North,-999,0.0,0.0,46,0.00,,,0.00,LWC V1.12 B30,2013-02-12 10:45:00,
2013-02-12 03:49:00,34.3,15.7,29.53,North,-999,0.0,0.0,46,0.00,,,0.00,LWC V1.12 B30,2013-02-12 10:49:00,
2013-02-12 03:54:00,34.2,15.6,29.53,North,-999,0.0,0.0,46,0.00,,,0.00,LWC V1.12 B30,2013-02-12 10:54:00,
2013-02-12 04:00:00,33.9,15.3,29.53,North,-999,0.0,0.0,46,0.00,,,0.00,LWC V1.12 B30,2013-02-12 11:00:00,
2013-02-12 04:05:00,33.8,15.7,29.53,North,-999,0.0,0.0,47,0.00,,,0.00,LWC V1.12 B30,2013-02-12 11:05:00,
2013-02-12 04:10:00,33.7,15.6,29.53,North,-999,0.0,0.0,47,0.00,,,0.00,LWC V1.12 B30,2013-02-12 11:10:00,
2013-02-12 04:15:00,33.6,15.5,29.53,North,-999,0.0,0.0,47,0.00,,,0.00,LWC V1.12 B30,2013-02-12 11:15:00,
2013-02-12 04:20:00,33.6,15.5,29.53,North,-999,0.0,0.0,47,0.00,,,0.00,LWC V1.12 B30,2013-02-12 11:20:00,
2013-02-12 04:25:00,33.5,15.5,29.53,North,-999,0.0,0.0,47,0.00,,,0.00,LWC V1.12 B30,2013-02-12 11:25:00,
2013-02-12 04:30:00,33.4,15.4,29.53,North,-999,0.0,0.0,47,0.00,,,0.00,LWC V1.12 B30,2013-02-12 11:30:00,
2013-02-12 04:35:00,33.3,15.3,29.53,North,-999,0.0,0.0,47,0.00,,,0.00,LWC V1.12 B30,2013-02-12 11:35:00,
2013-02-12 04:40:00,33.1,15.1,29.53,North,-999,0.0,0.0,47,0.00,,,0.00,LWC V1.12 B30,2013-02-12 11:40:00,
2013-02-12 04:45:00,33.0,15.5,29.53,North,-999,0.0,0.0,48,0.00,,,0.00,LWC V1.12 B30,2013-02-12 11:45:00,
2013-02-12 04:50:00,32.9,15.4,29.53,North,-999,0.0,0.0,48,0.00,,,0.00,LWC V1.12 B30,2013-02-12 11:50:00,
2013-02-12 04:55:00,32.8,15.3,29.53,North,-999,0.0,0.0,48,0.00,,,0.00,LWC V1.12 B30,2013-02-12 11:55:00,
2013-02-12 05:00:00,32.7,15.2,29.53,North,-999,0.0,0.0,48,0.00,,,0.00,LWC V1.12 B30,2013-02-12 12:00:00,
2013-02-12 05:05:00,32.6,15.1,29.53,North,-999,0.0,0.0,48,0.00,,,0.00,LWC V1.12 B30,2013-02-12 12:05:00,
2013-02-12 05:10:00,32.6,15.1,29.53,North,-999,0.0,0.0,48,0.00,,,0.00,LWC V1.12 B30,2013-02-12 12:10:00,
2013-02-12 05:15:00,32.5,15.0,29.53,North,-999,0.0,0.0,48,0.00,,,0.00,LWC V1.12 B30,2013-02-12 12:15:00,
2013-02-12 05:20:00,32.4,14.9,29.53,North,-999,0.0,0.0,48,0.00,,,0.00,LWC V1.12 B30,2013-02-12 12:20:00,
2013-02-12 05:25:00,32.4,14.9,29.53,North,-999,0.0,0.0,48,0.00,,,0.00,LWC V1.12 B30,2013-02-12 12:25:00,
2013-02-12 05:30:00,32.3,14.8,29.53,North,-999,0.0,0.0,48,0.00,,,0.00,LWC V1.12 B30,2013-02-12 12:30:00,
2013-02-12 05:35:00,32.2,14.7,29.53,North,-999,0.0,0.0,48,0.00,,,0.00,LWC V1.12 B30,2013-02-12 12:35:00,
2013-02-12 05:40:00,32.2,14.7,29.53,North,-999,0.0,0.0,48,0.00,,,0.00,LWC V1.12 B30,2013-02-12 12:40:00,
2013-02-12 05:45:00,32.1,15.1,29.53,North,-999,0.0,0.0,49,0.00,,,0.00,LWC V1.12 B30,2013-02-12 12:45:00,
2013-02-12 05:50:00,32.0,15.0,29.53,North,-999,0.0,0.0,49,0.00,,,0.00,LWC V1.12 B30,2013-02-12 12:50:00,
2013-02-12 05:55:00,31.9,14.5,29.53,North,-999,0.0,0.0,48,0.00,,,0.00,LWC V1.12 B30,2013-02-12 12:55:00,
2013-02-12 06:00:00,31.8,14.4,29.53,North,-999,0.0,0.0,48,0.00,,,0.00,LWC V1.12 B30,2013-02-12 13:00:00,
2013-02-12 06:05:00,31.7,14.8,29.53,North,-999,0.0,0.0,49,0.00,,,0.00,LWC V1.12 B30,2013-02-12 13:05:00,
2013-02-12 06:10:00,31.5,14.6,29.53,North,-999,0.0,0.0,49,0.00,,,0.00,LWC V1.12 B30,2013-02-12 13:10:00,
2013-02-12 06:15:00,31.4,14.9,29.53,North,-999,0.0,0.0,50,0.00,,,0.00,LWC V1.12 B30,2013-02-12 13:15:00,
2013-02-12 06:20:00,31.3,14.8,29.53,North,-999,0.0,0.0,50,0.00,,,0.00,LWC V1.12 B30,2013-02-12 13:20:00,
2013-02-12 06:25:00,31.3,14.8,29.53,North,-999,0.0,0.0,50,0.00,,,0.00,LWC V1.12 B30,2013-02-12 13:25:00,
2013-02-12 06:30:00,31.2,15.2,29.53,North,-999,0.0,0.0,51,0.00,,,0.00,LWC V1.12 B30,2013-02-12 13:30:00,
2013-02-12 06:35:00,31.1,15.1,29.53,North,-999,0.0,0.0,51,0.00,,,0.00,LWC V1.12 B30,2013-02-12 13:35:00,
2013-02-12 06:40:00,31.0,15.0,29.53,North,-999,0.0,0.0,51,0.00,,,0.00,LWC V1.12 B30,2013-02-12 13:40:00,
2013-02-12 06:45:00,31.0,15.0,29.53,North,-999,0.0,0.0,51,0.00,,,0.00,LWC V1.12 B30,2013-02-12 13:45:00,
2013-02-12 06:50:00,30.8,15.3,29.53,North,-999,0.0,0.0,52,0.00,,,0.00,LWC V1.12 B30,2013-02-12 13:50:00,
2013-02-12 06:55:00,30.8,15.3,29.53,North,-999,0.0,0.0,52,0.00,,,0.00,LWC V1.12 B30,2013-02-12 13:55:00,
2013-02-12 07:00:00,30.8,15.3,29.53,North,-999,0.0,0.0,52,0.00,,,0.00,LWC V1.12 B30,2013-02-12 14:00:00,
2013-02-12 07:05:00,30.8,15.3,29.53,North,-999,0.0,0.0,52,0.00,,,0.00,LWC V1.12 B30,2013-02-12 14:05:00,
2013-02-12 07:10:00,30.8,15.3,29.53,North,-999,0.0,0.0,52,0.00,,,0.00,LWC V1.12 B30,2013-02-12 14:10:00,
2013-02-12 07:15:00,30.7,15.2,29.53,North,-999,0.0,0.0,52,0.00,,,0.00,LWC V1.12 B30,2013-02-12 14:15:00,
2013-02-12 07:20:00,30.7,15.2,29.53,North,-999,0.0,0.0,52,0.00,,,0.00,LWC V1.12 B30,2013-02-12 14:20:00,
2013-02-12 07:25:00,30.7,15.2,29.53,North,-999,0.0,0.0,52,0.00,,,0.00,LWC V1.12 B30,2013-02-12 14:25:00,
2013-02-12 07:30:00,30.8,15.7,29.53,North,-999,0.0,0.0,53,0.00,,,0.00,LWC V1.12 B30,2013-02-12 14:30:00,
2013-02-12 07:35:00,31.1,15.6,29.53,North,-999,0.0,0.0,52,0.00,,,0.00,LWC V1.12 B30,2013-02-12 14:35:00,
2013-02-12 07:40:00,31.3,15.3,29.53,North,-999,0.0,0.0,51,0.00,,,0.00,LWC V1.12 B30,2013-02-12 14:40:00,
2013-02-12 07:45:00,31.5,15.5,29.53,North,-999,0.0,0.0,51,0.00,,,0.00,LWC V1.12 B30,2013-02-12 14:45:00,
2013-02-12 07:50:00,31.6,15.6,29.53,North,-999,0.0,0.0,51,0.00,,,0.00,LWC V1.12 B30,2013-02-12 14:50:00,
2013-02-12 07:55:00,31.8,15.3,29.53,North,-999,0.0,0.0,50,0.00,,,0.00,LWC V1.12 B30,2013-02-12 14:55:00,
2013-02-12 08:00:00,32.0,15.5,29.53,North,-999,0.0,0.0,50,0.00,,,0.00,LWC V1.12 B30,2013-02-12 15:00:00,
2013-02-12 08:05:00,32.0,15.5,29.53,North,-999,0.0,0.0,50,0.00,,,0.00,LWC V1.12 B30,2013-02-12 15:05:00,
2013-02-12 08:10:00,32.1,15.6,29.53,North,-999,0.0,0.0,50,0.00,,,0.00,LWC V1.12 B30,2013-02-12 15:10:00,
2013-02-12 08:15:00,32.3,15.8,29.53,North,-999,0.0,0.0,50,0.00,,,0.00,LWC V1.12 B30,2013-02-12 15:15:00,
2013-02-12 08:20:00,32.4,15.9,29.53,North,-999,0.0,0.0,50,0.00,,,0.00,LWC V1.12 B30,2013-02-12 15:20:00,
2013-02-12 08:25:00,32.7,15.7,29.53,North,-999,0.0,0.0,49,0.00,,,0.00,LWC V1.12 B30,2013-02-12 15:25:00,
2013-02-12 08:30:00,32.7,15.7,29.53,North,-999,0.0,0.0,49,0.00,,,0.00,LWC V1.12 B30,2013-02-12 15:30:00,
2013-02-12 08:35:00,33.0,15.5,29.53,North,-999,0.0,0.0,48,0.00,,,0.00,LWC V1.12 B30,2013-02-12 15:35:00,
2013-02-12 08:40:00,33.0,15.5,29.53,North,-999,0.0,0.0,48,0.00,,,0.00,LWC V1.12 B30,2013-02-12 15:40:00,
2013-02-12 08:45:00,33.3,15.8,29.53,North,-999,0.0,0.0,48,0.00,,,0.00,LWC V1.12 B30,2013-02-12 15:45:00,
2013-02-12 08:50:00,33.6,15.5,29.53,North,-999,0.0,0.0,47,0.00,,,0.00,LWC V1.12 B30,2013-02-12 15:50:00,
2013-02-12 08:55:00,33.7,15.6,29.53,North,-999,0.0,0.0,47,0.00,,,0.00,LWC V1.12 B30,2013-02-12 15:55:00,
2013-02-12 09:00:00,33.9,15.8,29.53,North,-999,0.0,0.0,47,0.00,,,0.00,LWC V1.12 B30,2013-02-12 16:00:00,
2013-02-12 09:05:00,34.2,15.6,29.53,North,-999,0.0,0.0,46,0.00,,,0.00,LWC V1.12 B30,2013-02-12 16:05:00,
2013-02-12 09:10:00,34.3,15.7,29.53,North,-999,0.0,0.0,46,0.00,,,0.00,LWC V1.12 B30,2013-02-12 16:10:00,
2013-02-12 09:15:00,34.5,15.4,29.53,North,-999,0.0,0.0,45,0.00,,,0.00,LWC V1.12 B30,2013-02-12 16:15:00,
2013-02-12 09:20:00,34.7,15.6,29.53,North,-999,0.0,0.0,45,0.00,,,0.00,LWC V1.12 B30,2013-02-12 16:20:00,
2013-02-12 09:25:00,34.8,15.1,29.53,North,-999,0.0,0.0,44,0.00,,,0.00,LWC V1.12 B30,2013-02-12 16:25:00,
2013-02-12 09:30:00,34.9,15.2,29.53,North,-999,0.0,0.0,44,0.00,,,0.00,LWC V1.12 B30,2013-02-12 16:30:00,
2013-02-12 09:35:00,35.1,15.4,29.53,North,-999,0.0,0.0,44,0.00,,,0.00,LWC V1.12 B30,2013-02-12 16:35:00,
2013-02-12 09:40:00,35.2,15.5,29.53,North,-999,0.0,0.0,44,0.00,,,0.00,LWC V1.12 B30,2013-02-12 16:40:00,
2013-02-12 09:45:00,35.4,15.7,29.53,North,-999,0.0,0.0,44,0.00,,,0.00,LWC V1.12 B30,2013-02-12 16:45:00,
2013-02-12 09:50:00,35.6,15.9,29.53,North,-999,0.0,0.0,44,0.00,,,0.00,LWC V1.12 B30,2013-02-12 16:50:00,
2013-02-12 09:55:00,35.8,15.5,29.53,North,-999,0.0,0.0,43,0.00,,,0.00,LWC V1.12 B30,2013-02-12 16:55:00,
2013-02-12 10:00:00,36.0,15.7,29.53,North,-999,0.0,0.0,43,0.00,,,0.00,LWC V1.12 B30,2013-02-12 17:00:00,
2013-02-12 10:05:00,36.2,15.3,29.53,North,-999,0.0,0.0,42,0.00,,,0.00,LWC V1.12 B30,2013-02-12 17:05:00,
2013-02-12 10:10:00,36.4,15.5,29.53,North,-999,0.0,0.0,42,0.00,,,0.00,LWC V1.12 B30,2013-02-12 17:10:00,
2013-02-12 10:15:00,36.6,15.2,29.53,North,-999,0.0,0.0,41,0.00,,,0.00,LWC V1.12 B30,2013-02-12 17:15:00,
2013-02-12 10:20:00,36.8,15.3,29.53,North,-999,0.0,0.0,41,0.00,,,0.00,LWC V1.12 B30,2013-02-12 17:20:00,
2013-02-12 10:25:00,36.9,14.9,29.53,North,-999,0.0,0.0,40,0.00,,,0.00,LWC V1.12 B30,2013-02-12 17:25:00,
2013-02-12 10:30:00,37.0,14.9,29.53,North,-999,0.0,0.0,40,0.00,,,0.00,LWC V1.12 B30,2013-02-12 17:30:00,
2013-02-12 10:35:00,37.2,14.6,29.53,North,-999,0.0,0.0,39,0.00,,,0.00,LWC V1.12 B30,2013-02-12 17:35:00,
2013-02-12 10:40:00,37.3,14.6,29.53,North,-999,0.0,0.0,39,0.00,,,0.00,LWC V1.12 B30,2013-02-12 17:40:00,
2013-02-12 10:45:00,37.5,14.2,29.53,North,-999,0.0,0.0,38,0.00,,,0.00,LWC V1.12 B30,2013-02-12 17:45:00,
2013-02-12 10:50:00,37.6,14.9,29.53,North,-999,0.0,0.0,39,0.00,,,0.00,LWC V1.12 B30,2013-02-12 17:50:00,
2013-02-12 10:55:00,37.7,14.4,29.53,North,-999,0.0,0.0,38,0.00,,,0.00,LWC V1.12 B30,2013-02-12 17:55:00,
2013-02-12 11:00:00,37.8,14.5,29.53,North,-999,0.0,0.0,38,0.00,,,0.00,LWC V1.12 B30,2013-02-12 18:00:00,
2013-02-12 11:05:00,38.0,14.7,29.53,North,-999,0.0,0.0,38,0.00,,,0.00,LWC V1.12 B30,2013-02-12 18:05:00,
2013-02-12 11:10:00,38.1,14.8,29.53,North,-999,0.0,0.0,38,0.00,,,0.00,LWC V1.12 B30,2013-02-12 18:10:00,
2013-02-12 11:15:00,38.3,14.3,29.53,North,-999,0.0,0.0,37,0.00,,,0.00,LWC V1.12 B30,2013-02-12 18:15:00,
2013-02-12 11:20:00,38.5,14.5,29.53,North,-999,0.0,0.0,37,0.00,,,0.00,LWC V1.12 B30,2013-02-12 18:20:00,
2013-02-12 11:25:00,38.7,14.7,29.53,North,-999,0.0,0.0,37,0.00,,,0.00,LWC V1.12 B30,2013-02-12 18:25:00,
2013-02-12 11:30:00,38.7,14.7,29.53,North,-999,0.0,0.0,37,0.00,,,0.00,LWC V1.12 B30,2013-02-12 18:30:00,
2013-02-12 11:35:00,38.9,14.9,29.53,North,-999,0.0,0.0,37,0.00,,,0.00,LWC V1.12 B30,2013-02-12 18:35:00,
2013-02-12 11:40:00,39.2,13.9,29.53,North,-999,0.0,0.0,35,0.00,,,0.00,LWC V1.12 B30,2013-02-12 18:40:00,
2013-02-12 11:45:00,39.3,13.3,29.53,North,-999,0.0,0.0,34,0.00,,,0.00,LWC V1.12 B30,2013-02-12 18:45:00,
2013-02-12 11:50:00,39.5,12.8,29.53,North,-999,0.0,0.0,33,0.00,,,0.00,LWC V1.12 B30,2013-02-12 18:50:00,
2013-02-12 11:55:00,39.6,12.9,29.53,North,-999,0.0,0.0,33,0.00,,,0.00,LWC V1.12 B30,2013-02-12 18:55:00,
2013-02-12 12:00:00,39.7,13.0,29.53,North,-999,0.0,0.0,33,0.00,,,0.00,LWC V1.12 B30,2013-02-12 19:00:00,
2013-02-12 12:05:00,39.7,12.3,29.53,North,-999,0.0,0.0,32,0.00,,,0.00,LWC V1.12 B30,2013-02-12 19:05:00,
2013-02-12 12:10:00,39.8,12.4,29.53,North,-999,0.0,0.0,32,0.00,,,0.00,LWC V1.12 B30,2013-02-12 19:10:00,
2013-02-12 12:15:00,39.9,12.5,29.53,North,-999,0.0,0.0,32,0.00,,,0.00,LWC V1.12 B30,2013-02-12 19:15:00,
2013-02-12 12:20:00,40.0,12.6,29.53,North,-999,0.0,0.0,32,0.00,,,0.00,LWC V1.12 B30,2013-02-12 19:20:00,
2013-02-12 12:25:00,40.1,11.9,29.53,North,-999,0.0,0.0,31,0.00,,,0.00,LWC V1.12 B30,2013-02-12 19:25:00,
2013-02-12 12:30:00,40.2,9.7,29.53,North,-999,0.0,0.0,28,0.00,,,0.00,LWC V1.12 B30,2013-02-12 19:30:00,
2013-02-12 12:35:00,40.3,10.6,29.53,North,-999,0.0,0.0,29,0.00,,,0.00,LWC V1.12 B30,2013-02-12 19:35:00,
2013-02-12 12:40:00,40.4,9.9,29.53,North,-999,0.0,0.0,28,0.00,,,0.00,LWC V1.12 B30,2013-02-12 19:40:00,
2013-02-12 12:45:00,40.5,10.8,29.53,North,-999,0.0,0.0,29,0.00,,,0.00,LWC V1.12 B30,2013-02-12 19:45:00,
2013-02-12 12:50:00,40.6,10.1,29.53,North,-999,0.0,0.0,28,0.00,,,0.00,LWC V1.12 B30,2013-02-12 19:50:00,
2013-02-12 12:55:00,40.7,10.2,29.53,North,-999,0.0,0.0,28,0.00,,,0.00,LWC V1.12 B30,2013-02-12 19:55:00,
2013-02-12 13:00:00,40.9,9.5,29.53,North,-999,0.0,0.0,27,0.00,,,0.00,LWC V1.12 B30,2013-02-12 20:00:00,
2013-02-12 13:05:00,41.1,9.7,29.53,North,-999,0.0,0.0,27,0.00,,,0.00,LWC V1.12 B30,2013-02-12 20:05:00,
2013-02-12 13:10:00,41.2,9.8,29.53,North,-999,0.0,0.0,27,0.00,,,0.00,LWC V1.12 B30,2013-02-12 20:10:00,
2013-02-12 13:15:00,41.3,9.9,29.53,North,-999,0.0,0.0,27,0.00,,,0.00,LWC V1.12 B30,2013-02-12 20:15:00,
2013-02-12 13:20:00,41.3,9.9,29.53,North,-999,0.0,0.0,27,0.00,,,0.00,LWC V1.12 B30,2013-02-12 20:20:00,
2013-02-12 13:25:00,41.4,10.0,29.53,North,-999,0.0,0.0,27,0.00,,,0.00,LWC V1.12 B30,2013-02-12 20:25:00,
2013-02-12 13:30:00,41.6,10.1,29.53,North,-999,0.0,0.0,27,0.00,,,0.00,LWC V1.12 B30,2013-02-12 20:30:00,
2013-02-12 13:35:00,41.7,10.2,29.53,North,-999,0.0,0.0,27,0.00,,,0.00,LWC V1.12 B30,2013-02-12 20:35:00,
2013-02-12 13:40:00,41.8,7.7,29.53,North,-999,0.0,0.0,24,0.00,,,0.00,LWC V1.12 B30,2013-02-12 20:40:00,
2013-02-12 13:45:00,41.8,8.6,29.53,North,-999,0.0,0.0,25,0.00,,,0.00,LWC V1.12 B30,2013-02-12 20:45:00,
2013-02-12 13:50:00,41.8,7.7,29.53,North,-999,0.0,0.0,24,0.00,,,0.00,LWC V1.12 B30,2013-02-12 20:50:00,
2013-02-12 13:55:00,41.8,6.8,29.53,North,-999,0.0,0.0,23,0.00,,,0.00,LWC V1.12 B30,2013-02-12 20:55:00,
2013-02-12 14:00:00,41.8,6.8,29.53,North,-999,0.0,0.0,23,0.00,,,0.00,LWC V1.12 B30,2013-02-12 21:00:00,
2013-02-12 14:05:00,41.9,7.8,29.53,North,-999,0.0,0.0,24,0.00,,,0.00,LWC V1.12 B30,2013-02-12 21:05:00,
2013-02-12 14:10:00,41.9,7.8,29.53,North,-999,0.0,0.0,24,0.00,,,0.00,LWC V1.12 B30,2013-02-12 21:10:00,
2013-02-12 14:15:00,42.1,7.9,29.53,North,-999,0.0,0.0,24,0.00,,,0.00,LWC V1.12 B30,2013-02-12 21:15:00,
2013-02-12 14:20:00,42.1,7.9,29.53,North,-999,0.0,0.0,24,0.00,,,0.00,LWC V1.12 B30,2013-02-12 21:20:00,
2013-02-12 14:25:00,42.1,7.9,29.53,North,-999,0.0,0.0,24,0.00,,,0.00,LWC V1.12 B30,2013-02-12 21:25:00,
2013-02-12 14:30:00,42.2,8.0,29.53,North,-999,0.0,0.0,24,0.00,,,0.00,LWC V1.12 B30,2013-02-12 21:30:00,
2013-02-12 14:35:00,42.2,8.9,29.53,North,-999,0.0,0.0,25,0.00,,,0.00,LWC V1.12 B30,2013-02-12 21:35:00,
2013-02-12 14:40:00,42.3,9.0,29.53,North,-999,0.0,0.0,25,0.00,,,0.00,LWC V1.12 B30,2013-02-12 21:40:00,
2013-02-12 14:45:00,42.3,8.1,29.53,North,-999,0.0,0.0,24,0.00,,,0.00,LWC V1.12 B30,2013-02-12 21:45:00,
2013-02-12 14:50:00,42.3,9.0,29.53,North,-999,0.0,0.0,25,0.00,,,0.00,LWC V1.12 B30,2013-02-12 21:50:00,
2013-02-12 14:55:00,42.3,8.1,29.53,North,-999,0.0,0.0,24,0.00,,,0.00,LWC V1.12 B30,2013-02-12 21:55:00,
2013-02-12 15:00:00,42.2,8.0,29.53,North,-999,0.0,0.0,24,0.00,,,0.00,LWC V1.12 B30,2013-02-12 22:00:00,
2013-02-12 15:05:00,42.2,8.0,29.53,North,-999,0.0,0.0,24,0.00,,,0.00,LWC V1.12 B30,2013-02-12 22:05:00,
2013-02-12 15:10:00,42.2,8.0,29.53,North,-999,0.0,0.0,24,0.00,,,0.00,LWC V1.12 B30,2013-02-12 22:10:00,
2013-02-12 15:15:00,42.2,8.9,29.53,North,-999,0.0,0.0,25,0.00,,,0.00,LWC V1.12 B30,2013-02-12 22:15:00,
2013-02-12 15:20:00,42.1,8.8,29.53,North,-999,0.0,0.0,25,0.00,,,0.00,LWC V1.12 B30,2013-02-12 22:20:00,
2013-02-12 15:25:00,42.1,9.7,29.53,North,-999,0.0,0.0,26,0.00,,,0.00,LWC V1.12 B30,2013-02-12 22:25:00,
2013-02-12 15:30:00,42.1,8.8,29.53,North,-999,0.0,0.0,25,0.00,,,0.00,LWC V1.12 B30,2013-02-12 22:30:00,
2013-02-12 15:35:00,42.1,7.9,29.53,North,-999,0.0,0.0,24,0.00,,,0.00,LWC V1.12 B30,2013-02-12 22:35:00,
2013-02-12 15:40:00,42.0,7.9,29.53,North,-999,0.0,0.0,24,0.00,,,0.00,LWC V1.12 B30,2013-02-12 22:40:00,
2013-02-12 15:45:00,42.0,7.9,29.53,North,-999,0.0,0.0,24,0.00,,,0.00,LWC V1.12 B30,2013-02-12 22:45:00,
2013-02-12 15:50:00,41.9,7.8,29.53,North,-999,0.0,0.0,24,0.00,,,0.00,LWC V1.12 B30,2013-02-12 22:50:00,
2013-02-12 15:55:00,41.9,7.8,29.53,North,-999,0.0,0.0,24,0.00,,,0.00,LWC V1.12 B30,2013-02-12 22:55:00,
2013-02-12 16:00:00,41.8,8.6,29.53,North,-999,0.0,0.0,25,0.00,,,0.00,LWC V1.12 B30,2013-02-12 23:00:00,
2013-02-12 16:05:00,41.8,9.5,29.53,North,-999,0.0,0.0,26,0.00,,,0.00,LWC V1.12 B30,2013-02-12 23:05:00,
2013-02-12 16:10:00,41.8,9.5,29.53,North,-999,0.0,0.0,26,0.00,,,0.00,LWC V1.12 B30,2013-02-12 23:10:00,
2013-02-12 16:15:00,41.8,8.6,29.53,North,-999,0.0,0.0,25,0.00,,,0.00,LWC V1.12 B30,2013-02-12 23:15:00,
2013-02-12 16:20:00,41.7,7.6,29.53,North,-999,0.0,0.0,24,0.00,,,0.00,LWC V1.12 B30,2013-02-12 23:20:00,
2013-02-12 16:25:00,41.6,8.4,29.53,North,-999,0.0,0.0,25,0.00,,,0.00,LWC V1.12 B30,2013-02-12 23:25:00,
2013-02-12 16:30:00,41.5,8.3,29.53,North,-999,0.0,0.0,25,0.00,,,0.00,LWC V1.12 B30,2013-02-12 23:30:00,
2013-02-12 16:35:00,41.5,7.4,29.53,North,-999,0.0,0.0,24,0.00,,,0.00,LWC V1.12 B30,2013-02-12 23:35:00,
2013-02-12 16:40:00,41.4,7.3,29.53,North,-999,0.0,0.0,24,0.00,,,0.00,LWC V1.12 B30,2013-02-12 23:40:00,
2013-02-12 16:45:00,41.3,7.3,29.53,North,-999,0.0,0.0,24,0.00,,,0.00,LWC V1.12 B30,2013-02-12 23:45:00,
2013-02-12 16:50:00,41.2,7.2,29.53,North,-999,0.0,0.0,24,0.00,,,0.00,LWC V1.12 B30,2013-02-12 23:50:00,
2013-02-12 16:55:00,41.1,8.0,29.53,North,-999,0.0,0.0,25,0.00,,,0.00,LWC V1.12 B30,2013-02-12 23:55:00,
2013-02-12 17:00:00,41.0,7.9,29.53,North,-999,0.0,0.0,25,0.00,,,0.00,LWC V1.12 B30,2013-02-13 00:00:00,
2013-02-12 17:05:00,40.8,7.7,29.53,North,-999,0.0,0.0,25,0.00,,,0.00,LWC V1.12 B30,2013-02-13 00:05:00,
2013-02-12 17:10:00,40.7,7.7,29.53,North,-999,0.0,0.0,25,0.00,,,0.00,LWC V1.12 B30,2013-02-13 00:10:00,
2013-02-12 17:15:00,40.6,7.6,29.53,North,-999,0.0,0.0,25,0.00,,,0.00,LWC V1.12 B30,2013-02-13 00:15:00,
2013-02-12 17:20:00,40.5,7.5,29.53,North,-999,0.0,0.0,25,0.00,,,0.00,LWC V1.12 B30,2013-02-13 00:20:00,
2013-02-12 17:25:00,40.3,8.2,29.53,North,-999,0.0,0.0,26,0.00,,,0.00,LWC V1.12 B30,2013-02-13 00:25:00,
2013-02-12 17:30:00,40.2,8.1,29.53,North,-999,0.0,0.0,26,0.00,,,0.00,LWC V1.12 B30,2013-02-13 00:30:00,
2013-02-12 17:35:00,40.1,8.0,29.53,North,-999,0.0,0.0,26,0.00,,,0.00,LWC V1.12 B30,2013-02-13 00:35:00,
2013-02-12 17:40:00,39.9,7.8,29.53,North,-999,0.0,0.0,26,0.00,,,0.00,LWC V1.12 B30,2013-02-13 00:40:00,
2013-02-12 17:45:00,39.8,8.6,29.53,North,-999,0.0,0.0,27,0.00,,,0.00,LWC V1.12 B30,2013-02-13 00:45:00,
2013-02-12 17:50:00,39.6,8.4,29.53,North,-999,0.0,0.0,27,0.00,,,0.00,LWC V1.12 B30,2013-02-13 00:50:00,
2013-02-12 17:55:00,39.5,8.3,29.53,North,-999,0.0,0.0,27,0.00,,,0.00,LWC V1.12 B30,2013-02-13 00:55:00,
2013-02-12 18:00:00,39.3,8.1,29.53,North,-999,0.0,0.0,27,0.00,,,0.00,LWC V1.12 B30,2013-02-13 01:00:00,
2013-02-12 18:05:00,39.2,8.1,29.53,North,-999,0.0,0.0,27,0.00,,,0.00,LWC V1.12 B30,2013-02-13 01:05:00,
2013-02-12 18:10:00,39.1,8.0,29.53,North,-999,0.0,0.0,27,0.00,,,0.00,LWC V1.12 B30,2013-02-13 01:10:00,
2013-02-12 18:15:00,39.0,7.9,29.53,North,-999,0.0,0.0,27,0.00,,,0.00,LWC V1.12 B30,2013-02-13 01:15:00,
2013-02-12 18:20:00,38.8,7.7,29.53,North,-999,0.0,0.0,27,0.00,,,0.00,LWC V1.12 B30,2013-02-13 01:20:00,
2013-02-12 18:25:00,38.8,8.5,29.53,North,-999,0.0,0.0,28,0.00,,,0.00,LWC V1.12 B30,2013-02-13 01:25:00,
2013-02-12 18:30:00,38.7,8.4,29.53,North,-999,0.0,0.0,28,0.00,,,0.00,LWC V1.12 B30,2013-02-13 01:30:00,
2013-02-12 18:35:00,38.6,8.3,29.53,North,-999,0.0,0.0,28,0.00,,,0.00,LWC V1.12 B30,2013-02-13 01:35:00,
2013-02-12 18:40:00,38.4,8.2,29.53,North,-999,0.0,0.0,28,0.00,,,0.00,LWC V1.12 B30,2013-02-13 01:40:00,
2013-02-12 18:45:00,38.3,8.1,29.53,North,-999,0.0,0.0,28,0.00,,,0.00,LWC V1.12 B30,2013-02-13 01:45:00,
2013-02-12 18:50:00,38.2,8.0,29.53,North,-999,0.0,0.0,28,0.00,,,0.00,LWC V1.12 B30,2013-02-13 01:50:00,
2013-02-12 18:55:00,38.1,7.9,29.53,North,-999,0.0,0.0,28,0.00,,,0.00,LWC V1.12 B30,2013-02-13 01:55:00,
2013-02-12 19:00:00,38.0,8.6,29.53,North,-999,0.0,0.0,29,0.00,,,0.00,LWC V1.12 B30,2013-02-13 02:00:00,
2013-02-12 19:05:00,37.9,8.5,29.53,North,-999,0.0,0.0,29,0.00,,,0.00,LWC V1.12 B30,2013-02-13 02:05:00,
2013-02-12 19:10:00,37.9,8.5,29.53,North,-999,0.0,0.0,29,0.00,,,0.00,LWC V1.12 B30,2013-02-13 02:10:00,
2013-02-12 19:15:00,37.8,9.2,29.53,North,-999,0.0,0.0,30,0.00,,,0.00,LWC V1.12 B30,2013-02-13 02:15:00,
2013-02-12 19:20:00,37.7,9.1,29.53,North,-999,0.0,0.0,30,0.00,,,0.00,LWC V1.12 B30,2013-02-13 02:20:00,
2013-02-12 19:25:00,37.6,9.0,29.53,North,-999,0.0,0.0,30,0.00,,,0.00,LWC V1.12 B30,2013-02-13 02:25:00,
2013-02-12 19:30:00,37.5,8.9,29.53,North,-999,0.0,0.0,30,0.00,,,0.00,LWC V1.12 B30,2013-02-13 02:30:00,
2013-02-12 19:35:00,37.5,8.9,29.53,North,-999,0.0,0.0,30,0.00,,,0.00,LWC V1.12 B30,2013-02-13 02:35:00,
2013-02-12 19:40:00,37.4,9.6,29.53,North,-999,0.0,0.0,31,0.00,,,0.00,LWC V1.12 B30,2013-02-13 02:40:00,
2013-02-12 19:45:00,37.3,9.5,29.53,North,-999,0.0,0.0,31,0.00,,,0.00,LWC V1.12 B30,2013-02-13 02:45:00,
2013-02-12 19:50:00,37.2,9.4,29.53,North,-999,0.0,0.0,31,0.00,,,0.00,LWC V1.12 B30,2013-02-13 02:50:00,
2013-02-12 19:55:00,37.2,9.4,29.53,North,-999,0.0,0.0,31,0.00,,,0.00,LWC V1.12 B30,2013-02-13 02:55:00,
2013-02-12 20:00:00,37.1,9.3,29.53,North,-999,0.0,0.0,31,0.00,,,0.00,LWC V1.12 B30,2013-02-13 03:00:00,
2013-02-12 20:05:00,37.0,9.2,29.53,North,-999,0.0,0.0,31,0.00,,,0.00,LWC V1.12 B30,2013-02-13 03:05:00,
2013-02-12 20:10:00,36.9,9.1,29.53,North,-999,0.0,0.0,31,0.00,,,0.00,LWC V1.12 B30,2013-02-13 03:10:00,
2013-02-12 20:15:00,36.8,9.7,29.53,North,-999,0.0,0.0,32,0.00,,,0.00,LWC V1.12 B30,2013-02-13 03:15:00,
2013-02-12 20:20:00,36.7,9.7,29.53,North,-999,0.0,0.0,32,0.00,,,0.00,LWC V1.12 B30,2013-02-13 03:20:00,
2013-02-12 20:25:00,36.7,9.7,29.53,North,-999,0.0,0.0,32,0.00,,,0.00,LWC V1.12 B30,2013-02-13 03:25:00,
2013-02-12 20:30:00,36.7,9.7,29.53,North,-999,0.0,0.0,32,0.00,,,0.00,LWC V1.12 B30,2013-02-13 03:30:00,
2013-02-12 20:35:00,36.6,9.6,29.53,North,-999,0.0,0.0,32,0.00,,,0.00,LWC V1.12 B30,2013-02-13 03:35:00,
2013-02-12 20:40:00,36.5,9.5,29.53,North,-999,0.0,0.0,32,0.00,,,0.00,LWC V1.12 B30,2013-02-13 03:40:00,
2013-02-12 20:45:00,36.5,9.5,29.53,North,-999,0.0,0.0,32,0.00,,,0.00,LWC V1.12 B30,2013-02-13 03:45:00,
2013-02-12 20:50:00,36.4,9.4,29.53,North,-999,0.0,0.0,32,0.00,,,0.00,LWC V1.12 B30,2013-02-13 03:50:00,
2013-02-12 20:55:00,36.4,9.4,29.53,North,-999,0.0,0.0,32,0.00,,,0.00,LWC V1.12 B30,2013-02-13 03:55:00,
2013-02-12 21:00:00,36.4,9.4,29.53,North,-999,0.0,0.0,32,0.00,,,0.00,LWC V1.12 B30,2013-02-13 04:00:00,
2013-02-12 21:05:00,36.3,10.0,29.53,North,-999,0.0,0.0,33,0.00,,,0.00,LWC V1.12 B30,2013-02-13 04:05:00,
2013-02-12 21:10:00,36.2,9.2,29.53,North,-999,0.0,0.0,32,0.00,,,0.00,LWC V1.12 B30,2013-02-13 04:10:00,
2013-02-12 21:15:00,36.1,9.8,29.53,North,-999,0.0,0.0,33,0.00,,,0.00,LWC V1.12 B30,2013-02-13 04:15:00,
2013-02-12 21:20:00,36.1,9.8,29.53,North,-999,0.0,0.0,33,0.00,,,0.00,LWC V1.12 B30,2013-02-13 04:20:00,
2013-02-12 21:25:00,36.0,9.7,29.53,North,-999,0.0,0.0,33,0.00,,,0.00,LWC V1.12 B30,2013-02-13 04:25:00,
2013-02-12 21:30:00,35.9,9.6,29.53,North,-999,0.0,0.0,33,0.00,,,0.00,LWC V1.12 B30,2013-02-13 04:30:00,
2013-02-12 21:35:00,35.8,9.5,29.53,North,-999,0.0,0.0,33,0.00,,,0.00,LWC V1.12 B30,2013-02-13 04:35:00,
2013-02-12 21:40:00,35.7,9.5,29.53,North,-999,0.0,0.0,33,0.00,,,0.00,LWC V1.12 B30,2013-02-13 04:40:00,
2013-02-12 21:45:00,35.7,9.5,29.53,North,-999,0.0,0.0,33,0.00,,,0.00,LWC V1.12 B30,2013-02-13 04:45:00,
2013-02-12 21:50:00,35.6,9.4,29.53,North,-999,0.0,0.0,33,0.00,,,0.00,LWC V1.12 B30,2013-02-13 04:50:00,
2013-02-12 21:55:00,35.5,9.3,29.53,North,-999,0.0,0.0,33,0.00,,,0.00,LWC V1.12 B30,2013-02-13 04:55:00,
2013-02-12 22:00:00,35.5,9.9,29.53,North,-999,0.0,0.0,34,0.00,,,0.00,LWC V1.12 B30,2013-02-13 05:00:00,
2013-02-12 22:01:00,35.4,9.9,29.53,North,-999,0.0,0.0,34,0.00,,,0.00,LWC V1.12 B30,2013-02-13 05:01:00,
2013-02-12 22:02:00,35.4,9.9,29.53,North,-999,0.0,0.0,34,0.00,,,0.00,LWC V1.12 B30,2013-02-13 05:02:00,
2013-02-12 22:07:00,35.4,9.9,29.53,North,-999,0.0,0.0,34,0.00,,,0.00,LWC V1.12 B30,2013-02-13 05:07:00,
2013-02-12 22:12:00,35.3,9.8,29.53,North,-999,0.0,0.0,34,0.00,,,0.00,LWC V1.12 B30,2013-02-13 05:12:00,
2013-02-12 22:17:00,35.2,9.7,29.53,North,-999,0.0,0.0,34,0.00,,,0.00,LWC V1.12 B30,2013-02-13 05:17:00,
2013-02-12 22:22:00,35.2,10.3,29.53,North,-999,0.0,0.0,35,0.00,,,0.00,LWC V1.12 B30,2013-02-13 05:22:00,
2013-02-12 22:27:00,35.1,10.2,29.53,North,-999,0.0,0.0,35,0.00,,,0.00,LWC V1.12 B30,2013-02-13 05:27:00,
2013-02-12 22:32:00,35.1,10.2,29.53,North,-999,0.0,0.0,35,0.00,,,0.00,LWC V1.12 B30,2013-02-13 05:32:00,
2013-02-12 22:37:00,35.0,10.1,29.53,North,-999,0.0,0.0,35,0.00,,,0.00,LWC V1.12 B30,2013-02-13 05:37:00,
2013-02-12 22:42:00,35.0,10.1,29.53,North,-999,0.0,0.0,35,0.00,,,0.00,LWC V1.12 B30,2013-02-13 05:42:00,
2013-02-12 22:47:00,34.9,10.1,29.53,North,-999,0.0,0.0,35,0.00,,,0.00,LWC V1.12 B30,2013-02-13 05:47:00,
2013-02-12 22:52:00,34.8,10.0,29.53,North,-999,0.0,0.0,35,0.00,,,0.00,LWC V1.12 B30,2013-02-13 05:52:00,
2013-02-12 22:57:00,34.6,9.8,29.53,North,-999,0.0,0.0,35,0.00,,,0.00,LWC V1.12 B30,2013-02-13 05:57:00,
2013-02-12 23:02:00,34.5,10.3,29.53,North,-999,0.0,0.0,36,0.00,,,0.00,LWC V1.12 B30,2013-02-13 06:02:00,
2013-02-12 23:07:00,34.4,10.2,29.53,North,-999,0.0,0.0,36,0.00,,,0.00,LWC V1.12 B30,2013-02-13 06:07:00,
2013-02-12 23:12:00,34.3,10.2,29.53,North,-999,0.0,0.0,36,0.00,,,0.00,LWC V1.12 B30,2013-02-13 06:12:00,
2013-02-12 23:17:00,34.2,10.1,29.53,North,-999,0.0,0.0,36,0.00,,,0.00,LWC V1.12 B30,2013-02-13 06:17:00,
2013-02-12 23:22:00,34.0,9.9,29.53,North,-999,0.0,0.0,36,0.00,,,0.00,LWC V1.12 B30,2013-02-13 06:22:00,
2013-02-12 23:27:00,33.9,9.8,29.53,North,-999,0.0,0.0,36,0.00,,,0.00,LWC V1.12 B30,2013-02-13 06:27:00,
2013-02-12 23:32:00,33.8,10.3,29.53,North,-999,0.0,0.0,37,0.00,,,0.00,LWC V1.12 B30,2013-02-13 06:32:00,
2013-02-12 23:37:00,33.7,9.6,29.53,North,-999,0.0,0.0,36,0.00,,,0.00,LWC V1.12 B30,2013-02-13 06:37:00,
2013-02-12 23:42:00,33.6,10.1,29.53,North,-999,0.0,0.0,37,0.00,,,0.00,LWC V1.12 B30,2013-02-13 06:42:00,
2013-02-12 23:47:00,33.5,10.0,29.53,North,-999,0.0,0.0,37,0.00,,,0.00,LWC V1.12 B30,2013-02-13 06:47:00,
2013-02-12 23:52:00,33.4,10.0,29.53,North,-999,0.0,0.0,37,0.00,,,0.00,LWC V1.12 B30,2013-02-13 06:52:00,
2013-02-12 23:57:00,33.3,9.9,29.53,North,-999,0.0,0.0,37,0.00,,,0.00,LWC V1.12 B30,2013-02-13 06:57:00,